Location: Unspecified
(52.1384°N, 8.6525°W)
Time: 15:30:39
(UTC+00:00)

XW-2F - Pass Details

Date: 18 January 2021
Orbit: 500 x 520 km, 97.5° (Epoch: 06 March)

Event Time Altitude Azimuth Distance (km) Brightness Sun altitude
Rises 05:36:29 0° 29° (NNE) 2,658 ? -26.5°
Reaches altitude 10° 05:39:30 10° 56° (NE) 1,765 ? -26.0°
Maximum altitude 05:41:32 14° 88° (E) 1,526 ? -25.7°
Drops below altitude 10° 05:43:35 10° 121° (ESE) 1,759 ? -25.4°
Sets 05:46:33 0° 148° (SSE) 2,640 ? -24.9°
